Regional Weather Roundup
Issued by NWS Wakefield, VA

Home | Current Version | Previous Version | Graphics & Text | Print | Product List | Glossary On
Versions: 1 2 3 4 5 6 7 8 9 10 11 12 13 14 15 16 17 18 19 20 21 22 23 24 25 26 27 28 29 30 31 32 33 34 35 36 37 38 39 40 41 42 43 44 45 46 47 48 49 50
000
ASUS41 KAKQ 161910
RWRAKQ

REGIONAL WEATHER ROUNDUP
NATIONAL WEATHER SERVICE WAKEFIELD VA
300 PM EDT TUE SEP 16 2014

Note: "fair" indicates few or no clouds below 12,000 feet with no
significant weather and/or obstructions to visibility. * = Denotes
station may not report precipitation (e.g., rain,snow,etc.),
thunder or fog.

VAZ042-051-052>054-056-162000-
NORTHERN VIRGINIA

CITY           SKY/WX    TMP DP  RH WIND       PRES   REMARKS
WASH NATIONAL  PTSUNNY   79  51  37 N12       30.00F
DULLES         PTSUNNY   73  51  46 NW12      30.01F
FORT BELVOIR   PTSUNNY   77  52  42 VRB7      30.00F
QUANTICO       MOSUNNY   78  53  41 N12       30.00F
FREDERICKSBRG* SUNNY     79  56  45 N13G21    29.98F
STAFFORD*      SUNNY     77  55  47 NW12G17   30.03F
WARRENTON      MOSUNNY   79  60  51 NW12      30.01S
CULPEPER*      SUNNY     77  52  41 N7G16     30.01F
MANASSAS*      NOT AVBL
LEESBURG*      MOSUNNY   75  54  46 NW12G18   30.02S
WINCHESTER     PTSUNNY   73  46  38 NW13      30.02F
FRONT ROYAL*   PTCLDY    72  52  49 N9        30.01F
LURAY*         PTCLDY    77  50  38 W8        30.03F
$$

VAZ048-049-060>072-079>083-162000-
CENTRAL AND SOUTH CENTRAL VIRGINIA...AND NORTH CENTRAL NORTH CAROLINA

CITY           SKY/WX    TMP DP  RH WIND       PRES   REMARKS
RICHMOND       PTSUNNY   81  58  45 CALM      29.96F
CHESTERFIELD*  MOCLDY    82  55  39 N3        29.99F
PETERSBURG*    CLOUDY    79  58  48 SW3       29.98F
HANOVER        PTSUNNY   80  61  52 VRB5      29.98F
TAPPAHANNOCK*  CLOUDY    77  57  50 N6        29.99S
CHARLOTTSVILLE MOSUNNY   78  57  48 VRB6      30.00F
ORANGE*        PTSUNNY   77  54  44 N10       30.01S
LOUISA*        PTSUNNY   77  59  53 N6        29.98S
FARMVILLE*     CLOUDY    79  59  50 N6        29.97F
CREWE*         CLOUDY    80  63  56 CALM      29.99F
FORT PICKETT*  CLOUDY    77  61  56 CALM      29.99S
LUNENBURG*     CLOUDY    78  63  60 CALM      30.00S
SOUTH HILL*    CLOUDY    81  63  54 CALM      30.04S
LAWRENCEVILLE* MOCLDY    79  63  57 CALM      29.99S
ROANOKE RAPIDS CLOUDY    79  63  57 CALM      29.98S
RALEIGH        PTSUNNY   81  61  50 NE7       30.00F
$$

VAZ088>098-162000-
SOUTHEAST VIRGINIA

CITY           SKY/WX    TMP DP  RH WIND       PRES   REMARKS
NORFOLK        MOSUNNY   77  61  57 NE8       29.98F
VIRGINIA BEACH MOSUNNY   80  58  46 N8        29.97F
NORFOLK NAVAL  PTSUNNY   79  62  56 VRB3      29.99F
WEST POINT*    CLOUDY    81  58  44 NW3       29.98F
NEWPORT NEWS   CLOUDY    84  62  47 VRB3      29.97F
LANGLEY AFB    PTSUNNY   78  64  61 E7        29.97F
FORT EUSTIS    MOSUNNY   78  58  49 NW2       29.96F
WILLIAMSBURG*  CLOUDY    82  66  57 SE6       29.98F
HR EXEC AP*    CLEAR     81  63  54 W5        29.99F
FRANKLIN*        N/A     82  61  47 NW6       29.97S
WAKEFIELD      CLOUDY    80  61  52 CALM      29.97F
$$

VAZ020-022-025-037-045-162000-
WEST CENTRAL AND SOUTHWEST VIRGINIA

CITY           SKY/WX    TMP DP  RH WIND       PRES   REMARKS
STAUNTON*      PTSUNNY   77  53  43 NW7       30.04F
HOT SPRINGS VA PTSUNNY   60  44  54 W8        30.13F
LYNCHBURG      PTSUNNY   77  62  59 N5        30.03F
DANVILLE       CLOUDY    80  63  55 MISG      30.00F
SOUTH BOSTON*  NOT AVBL
MARTINSVILLE   PTSUNNY   80  65  59 CALM      30.03F
ROANOKE        PTSUNNY   74  59  59 NW7       30.05F
BLACKSBURG     CLOUDY    70  63  78 NW8       30.10F
DUBLIN*        PTSUNNY   69  64  84 N6        30.10F
MARION*        CLOUDY    68  61  77 W5        30.12S
HILLSVILLE*    PTSUNNY   69  62  77 NW12      30.09F
RICHLANDS*     CLOUDY    69  62  76 NW6       30.12S
WISE*          CLOUDY    66  63  88 N5        30.12F
ABINGDON*      LGT RAIN  70  65  83 N3        30.09S
$$

MDZ021>025-VAZ099-100-162000-
SOUTHERN MARYLAND AND THE DELMARVA PENINSULA

CITY           SKY/WX    TMP DP  RH WIND       PRES   REMARKS
PATUXENT RIVER PTSUNNY   78  56  46 N13       29.98S
BAY BRIDGE APT   N/A     73  52  46 N7        29.98F
LEONARDTOWN    CLOUDY    73  55  53 NW9       30.00F
DOVER          MOSUNNY   76  56  48 NW12G18   29.95F
GEORGETOWN     MOSUNNY   78  54  43 VRB7      29.96F
EASTON         MOSUNNY   75  57  53 N9        30.02F
CAMBRIDGE      PTSUNNY   77  55  47 NW9       29.98S
SALISBURY      MOSUNNY   78  56  46 NW10      29.96F
OCEAN CITY     SUNNY     79  56  45 NW10      29.96S
WALLOPS ISLAND MOSUNNY   79  59  50 NW10      29.96F
ACCOMACK*      SUNNY     77  57  50 N10       29.97F
$$

NCZ012>017-030>032-162000-
EASTERN NORTH CAROLINA

CITY           SKY/WX    TMP DP  RH WIND       PRES   REMARKS
ELIZABETH CITY SUNNY     82  64  54 VRB3      29.96F
AHOSKIE*       MOSUNNY   78  64  62 CALM      29.98S
EDENTON*       SUNNY     82  66  56 W6        29.97S
CURRITUCK*     SUNNY     82  59  45 NE8       29.97F
KILL DEVIL HLS SUNNY     81  66  60 W7        29.95F
MANTEO         SUNNY     80  67  63 N8        29.96F
CAPE HATTERAS  SUNNY     79  69  71 SW7       29.97F
TARBORO*       CLOUDY    82  64  55 NW3       29.98F
GOLDSBORO      SUNNY     82  69  64 CALM      29.96F
WASHINGTON     SUNNY     80  66  60 CALM      29.98S
GREENVILLE     SUNNY     82  64  54 CALM      29.99F
NEW BERN       SUNNY     87  68  52 VRB6      29.97F
WILMINGTON     MOSUNNY   82  73  74 SE10      29.97F
$$

VAZ048-162000-
ELSEWHERE

CITY           SKY/WX    TMP DP  RH WIND       PRES   REMARKS
HARRISBURG PA  MOSUNNY   71  49  45 N15       30.00F
BALTIMORE      PTSUNNY   75  53  46 W8        29.99S
ANNAPOLIS      MOSUNNY   73  54  51 NW8       29.98F
ANDREWS AFB    MOSUNNY   74  52  46 N14G21    29.99F
WILMINGTON DE  PTSUNNY   74  55  51 N8        29.99S
PHILADELPHIA   PTSUNNY   73  54  51 N9        29.98S
WILDWOOD NJ*   SUNNY     73  57  56 NW12G17   29.97S
ATLANTIC CITY  PTSUNNY   73  55  53 N15       29.96S
HENDERSON NC   CLOUDY    78  61  54 W3        30.01S
GREENSBORO     PTSUNNY   81  64  56 NW7       29.99F
ROCKY MOUNT    PTSUNNY   82  62  50 CALM      29.99S
FAYETTEVILLE   SUNNY     85  66  53 VRB6      29.98F
CHARLOTTE      MOSUNNY   85  64  49 CALM      30.00F
$$

VAZ100-162000-
MARINE

STATION/POSITION TIME  TEMP    WIND        PRES    WAVE   SWELL
                       AIR SEA DIR/SP/G            HT/PER HT/PER
                 (UTC) (F)     (DEG/KT/KT) (MB)    (FT/S) (FT/S)
44066 TX TWR #4  1900   67 73   20/  8/ 10 1014.0F   2/14   2/14
CAPE MAY NJ      1900   73 76  320/ 12/ 14 1014.0F
LEWES DE         1900   72 73  360/ 14/ 17 1014.3F
15NM E FENWICK I 1900   71 72              1014.1F   3/ 4
OCEAN-CITY-INLET 1900   75 72   10/  6/  9 1014.0S
WACHAPREAGUE VA  1900   76 74  360/  7/ 10 1014.9F
THOMAS POINT MD  1900   72 74  300/ 11/ 13 1016.1F
GOOSES REEF MD   1900   73     340/ 12/ 14 1015.9S
COVE POINT MD    1900   72     360/ 10/ 12 1015.2F
SOLOMONS ISLAND  1900      76                N/A
BISHOPS HEAD MD  1900   74 74  310/ 13/ 17 1014.8S
PINEY POINT MD   1900          340/ 11/ 14   N/A
POTOMAC MD       1900   74      20/  6/ 10 1014.7F
CAMBRIDGE MD     1900   73 75  310/  9/ 12 1014.9F
LEWISETTA VA     1900   74 74  350/  9/ 12 1014.8S
RAPPAHANNOCK LGT 1900          350/ 10/ 11 1015.7S
STINGRAY PT      1900   74      80/  4/  6   N/A
YORK RVR RNG VA  1900   74     120/  3/  5 1014.7F
YORKTOWN VA      1900   77 77  340/  5/  6 1014.6F
JAMESTOWN VA     1900   75     320/  4/  6   N/A
DOMINION TERM VA 1900   74     140/  6/  6 1015.3S
KIPTOPEKE VA     1900      79  310/  7/  9   N/A
CHES BAY BRIDGE  1900   73 76  350/  3/  5 1014.9R
CAPE HENRY VA    1900   74     320/  6/  7 1014.0F
CHESAPEAKE LGHT  1800   74     280/  6/  7 1016.1F
WILLOUBY STN VA  1900   74      90/  5/  5 1014.0F
S CRANEY ISL VA  1900          340/  5/  6 1014.9F
CAPE HENRY BUOY  1800      76                N/A     2/13
1ST LANDING BUOY 1900   74     350/  6/  6 1014.9S
CAPE CHARLES BUO 1900      76                N/A     2/13   2/13
OFFSHORE WE BUOY 1900      75                N/A     2/13   2/13
64NM E OF VA BCH 1900   74 79  300/ 10/ 12 1014.4F   2/13   2/13
DUCK PIER NC     1900   76 76   30/  7/  8 1014.1S
44100 DUCK FRF   1900      75                N/A     2/13   2/13
44056 DUCK FRF   1900                        N/A     2/12   2/12
OREGON INLET NC  1900   77 75   90/  2/  5 1014.7S
HATTERAS NC      1900   80 78  200/  5/  7 1015.4F
DIAMOND SHLS NC  1900   76     280/  4/  6 1015.1F   2/ 8   2/ 8
CAPE LOOKOUT NC  1800   77     170/  6/  7 1015.5F
$$



USA.gov is the U.S. government's official web portal to all federal, state and local government web resources and services.